Find SNIPE 1

NORAD ID: 56746 Int'l Des: NNA 2023-072 Owner: KASI Country: KR operational
LEOCIRCULARRETROGRADE

現在のビュー

3D地球を読み込み中...

About SNIPE 1

SNIPE 1 (NORAD 56746) is a satellite launched May 25, 2023 by KASI of KR. It operates in LEO, CIRCULAR, RETROGRADE orbit with a mass of 10.00 kg.

次回通過

Passes for default location (London). Set your location on the main map for personalized predictions.

高度履歴

Loading altitude history...

軌道要素

1 56746U 23072D 26194.71014560 .00081316 00000-0 53172-3 0 9998
2 56746 97.4809 52.9822 0005113 165.1077 195.0339 15.75568548175032
Epoch: Jul 13, 2026 • Age: 8 hours

現在のステータス

高度 343.3 km
遠地点 / 近地点 N/A
速度 7.71 km/s
衛星直下点 28.78°N, 74.02°W
打ち上げ日 May 25, 2023
運用期間 3.1 years
タイプ other

技術仕様

分類 Payload
質量 10.00 kg
乾燥質量 10.00 kg
総質量 10.00 kg
長さ 0.30 m
直径 0.10 m
スパン 0.70 m
形状 Box+ 2 pan
製造者 KASI
バスタイプ Cubesat 6U
フェーズステータス In Orbit
所有者/国 KASI/KR

Most Searched